AAL72A YSSY-KLAX

Flight info

Callsign AAL72A
Flight time N/A
Altitude 31000
Route DIPSO G595 SOTKI DCT 3113S15910E 2850S16300E/N0489F330 2840S16316E 2630S16718E 2413S17126E 2047S17608E 1901S17804E 1606S17912W 1158S17553W 1038S17454W 0724S17239W/N0489F350 0500S17102W 0321S16956W 0116N16656W 0406N16503W 0842N16128W 1149N15843W 1541N15457W/N0478F370 19N151W 2152N14701W 2445N14213W 2640N13808W 2839N13324W 2955N13020W DCT EDSEL R577 ELKEY RYDRR2
Aircraft B77W/H-SDE1E2E3FGHIJ2J3J4J5M1RWXY/LB1D1

Departure

Time 2026-04-21 02:43
Airport Sydney Kingsford Smith International Airport (YSSY)

Arrival

Time N/A
Airport Los Angeles International Airport (KLAX)
Time Latitude Longitude Altitude Speed Heading
2026-04-21 02:18 -33.93612 151.17010 30 ft 0 kts 167°
2026-04-21 02:35 -33.93605 151.17008 29 ft 4 kts 167°
2026-04-21 02:35 -33.93579 151.17001 30 ft 4 kts 173°
2026-04-21 02:35 -33.93552 151.16997 30 ft 4 kts 165°
2026-04-21 02:36 -33.93528 151.16985 30 ft 4 kts 138°
2026-04-21 02:36 -33.93516 151.16961 31 ft 4 kts 84°
2026-04-21 02:36 -33.93516 151.16955 31 ft 0 kts 77°
2026-04-21 02:38 -33.93515 151.16963 31 ft 4 kts 77°
2026-04-21 02:38 -33.93496 151.17049 28 ft 15 kts 64°
2026-04-21 02:38 -33.93404 151.17074 28 ft 15 kts 350°
2026-04-21 02:39 -33.93298 151.17008 29 ft 26 kts 316°
2026-04-21 02:39 -33.93101 151.16919 28 ft 29 kts 348°
2026-04-21 02:39 -33.92977 151.16975 28 ft 18 kts 79°
2026-04-21 02:39 -33.92974 151.17007 29 ft 0 kts 78°
2026-04-21 02:41 -33.92972 151.17016 29 ft 7 kts 78°
2026-04-21 02:41 -33.92952 151.17135 27 ft 10 kts 79°
2026-04-21 02:42 -33.92990 151.17174 28 ft 0 kts 169°
2026-04-21 02:42 -33.93046 151.17188 26 ft 33 kts 168°
2026-04-21 02:42 -33.93522 151.17312 21 ft 106 kts 167°
2026-04-21 02:42 -33.94461 151.17554 29 ft 168 kts 167°
2026-04-21 02:43 -33.95753 151.17890 40 ft 208 kts 167°
2026-04-21 02:43 -33.97166 151.18282 589 ft 209 kts 171°
2026-04-21 02:43 -33.98586 151.18571 1363 ft 203 kts 176°
2026-04-21 02:43 -33.99977 151.18368 1952 ft 208 kts 191°
2026-04-21 02:44 -34.01452 151.18009 2333 ft 223 kts 188°
2026-04-21 02:44 -34.03012 151.17647 2698 ft 237 kts 189°
2026-04-21 02:44 -34.04664 151.17672 3042 ft 243 kts 159°
2026-04-21 02:44 -34.06230 151.18509 3494 ft 249 kts 160°
2026-04-21 02:45 -34.07881 151.19187 4167 ft 252 kts 163°
2026-04-21 02:45 -34.09568 151.19781 4919 ft 253 kts 165°
2026-04-21 02:45 -34.11284 151.20365 5522 ft 260 kts 165°
2026-04-21 02:45 -34.13029 151.20952 6203 ft 261 kts 165°
2026-04-21 02:46 -34.14783 151.21539 6862 ft 263 kts 166°
2026-04-21 02:46 -34.16562 151.22132 7402 ft 268 kts 165°
2026-04-21 02:46 -34.18348 151.22811 7918 ft 271 kts 155°
2026-04-21 02:46 -34.19817 151.24238 8467 ft 276 kts 128°
2026-04-21 02:47 -34.20607 151.26379 9030 ft 287 kts 103°
2026-04-21 02:47 -34.20626 151.28819 9547 ft 295 kts 87°
2026-04-21 02:47 -34.20335 151.31298 10109 ft 299 kts 84°
2026-04-21 02:47 -34.19982 151.33833 10397 ft 315 kts 83°
2026-04-21 02:48 -34.19588 151.36523 10566 ft 335 kts 83°
2026-04-21 02:48 -34.19175 151.39382 10717 ft 355 kts 83°
2026-04-21 02:48 -34.18742 151.42389 11013 ft 369 kts 83°
2026-04-21 02:48 -34.18299 151.45478 11491 ft 378 kts 83°
2026-04-21 02:49 -34.17846 151.48628 12057 ft 384 kts 83°
2026-04-21 02:49 -34.17389 151.51815 12712 ft 387 kts 83°
2026-04-21 02:49 -34.16934 151.54989 13353 ft 390 kts 83°
2026-04-21 02:49 -34.16469 151.58237 13999 ft 395 kts 83°
2026-04-21 02:50 -34.16000 151.61520 14556 ft 399 kts 83°
2026-04-21 02:50 -34.15525 151.64835 15150 ft 402 kts 83°
2026-04-21 02:50 -34.15048 151.68173 15755 ft 405 kts 83°
2026-04-21 02:50 -34.14565 151.71546 16348 ft 408 kts 83°
2026-04-21 02:51 -34.14080 151.74934 16940 ft 412 kts 83°
2026-04-21 02:51 -34.13591 151.78350 17505 ft 415 kts 83°
2026-04-21 02:51 -34.13097 151.81802 18082 ft 419 kts 83°
2026-04-21 02:51 -34.12598 151.85279 18647 ft 422 kts 83°
2026-04-21 02:52 -34.12206 151.88789 19125 ft 424 kts 87°
2026-04-21 02:52 -34.11940 151.92341 19614 ft 426 kts 89°
2026-04-21 02:52 -34.11718 151.95920 20117 ft 429 kts 89°
2026-04-21 02:52 -34.11503 151.99519 20604 ft 432 kts 89°
2026-04-21 02:53 -34.11277 152.03154 21095 ft 435 kts 89°
2026-04-21 02:53 -34.11037 152.06801 21575 ft 438 kts 89°
2026-04-21 02:53 -34.10785 152.10476 22026 ft 441 kts 89°
2026-04-21 02:53 -34.10522 152.14177 22484 ft 444 kts 89°
2026-04-21 02:54 -34.10252 152.17904 22931 ft 447 kts 89°
2026-04-21 02:54 -34.09977 152.21657 23383 ft 450 kts 89°
2026-04-21 02:54 -34.09698 152.25436 23830 ft 453 kts 89°
2026-04-21 02:54 -34.09416 152.29234 24203 ft 456 kts 89°
2026-04-21 02:55 -34.09130 152.33061 24565 ft 459 kts 89°
2026-04-21 02:55 -34.08843 152.36903 24944 ft 461 kts 89°
2026-04-21 02:55 -34.08553 152.40762 25290 ft 463 kts 89°
2026-04-21 02:55 -34.08260 152.44646 25648 ft 466 kts 89°
2026-04-21 02:56 -34.07965 152.48550 25984 ft 469 kts 89°
2026-04-21 02:56 -34.07370 152.56364 26675 ft 473 kts 89°
2026-04-21 02:56 -34.07067 152.60331 26996 ft 476 kts 89°
2026-04-21 02:57 -34.06760 152.64313 27318 ft 478 kts 89°
2026-04-21 02:57 -34.06451 152.68311 27632 ft 480 kts 89°
2026-04-21 02:57 -34.06139 152.72334 27941 ft 483 kts 89°
2026-04-21 02:57 -34.05824 152.76382 28244 ft 485 kts 89°
2026-04-21 02:58 -34.05506 152.80440 28523 ft 487 kts 89°
2026-04-21 02:58 -34.05186 152.84518 28817 ft 489 kts 89°
2026-04-21 02:58 -34.04863 152.88610 29095 ft 491 kts 89°
2026-04-21 02:58 -34.04538 152.92713 29356 ft 493 kts 89°
2026-04-21 02:59 -34.04209 152.96836 29652 ft 494 kts 89°
2026-04-21 02:59 -34.03879 153.00950 30015 ft 493 kts 89°
2026-04-21 02:59 -34.03548 153.05060 30394 ft 491 kts 89°
2026-04-21 02:59 -34.03217 153.09158 30693 ft 491 kts 89°
2026-04-21 03:00 -34.02997 153.11869 30869 ft 491 kts 89°
2026-04-21 03:00 -34.02665 153.15961 31135 ft 491 kts 89°
2026-04-21 03:00 -34.01995 153.24196 31270 ft 495 kts 89°
2026-04-21 03:01 -34.01317 153.32409 31277 ft 490 kts 89°
2026-04-21 03:01 -34.00639 153.40557 31290 ft 488 kts 89°
2026-04-21 03:02 -33.99958 153.48697 31288 ft 488 kts 90°
2026-04-21 03:02 -33.99273 153.56838 31283 ft 488 kts 90°
2026-04-21 03:03 -33.98580 153.64989 31283 ft 489 kts 89°
2026-04-21 03:03 -33.97881 153.73151 31279 ft 490 kts 89°
2026-04-21 03:04 -33.97174 153.81334 31279 ft 491 kts 90°
2026-04-21 03:04 -33.96461 153.89522 31272 ft 492 kts 90°
2026-04-21 03:05 -33.95742 153.97708 31270 ft 492 kts 90°
2026-04-21 03:05 -33.95022 154.05846 31293 ft 491 kts 90°
2026-04-21 03:06 -33.94293 154.14033 31267 ft 491 kts 90°
2026-04-21 03:06 -33.93557 154.22225 31261 ft 491 kts 90°
2026-04-21 03:07 -33.92818 154.30398 31255 ft 491 kts 90°
2026-04-21 03:07 -33.92073 154.38566 31273 ft 490 kts 90°
2026-04-21 03:08 -33.91325 154.46727 31259 ft 490 kts 90°
2026-04-21 03:08 -33.90575 154.54831 31257 ft 490 kts 89°
2026-04-21 03:09 -33.89815 154.62996 31247 ft 490 kts 89°
2026-04-21 03:09 -33.89051 154.71140 31260 ft 490 kts 89°
2026-04-21 03:10 -33.88281 154.79284 31268 ft 490 kts 89°
2026-04-21 03:10 -33.87506 154.87433 31248 ft 490 kts 89°
2026-04-21 03:11 -33.86725 154.95586 31246 ft 490 kts 89°
2026-04-21 03:11 -33.85939 155.03737 31250 ft 491 kts 89°
2026-04-21 03:12 -33.85145 155.11883 31247 ft 490 kts 88°
2026-04-21 03:12 -33.83244 155.19804 31249 ft 505 kts 70°
2026-04-21 03:13 -33.79417 155.26956 31254 ft 513 kts 57°
2026-04-21 03:13 -33.75031 155.33751 31239 ft 515 kts 57°
2026-04-21 03:14 -33.70660 155.40564 31235 ft 515 kts 57°
2026-04-21 03:14 -33.66313 155.47431 31230 ft 516 kts 57°
2026-04-21 03:15 -33.61986 155.54297 31227 ft 516 kts 57°
2026-04-21 03:15 -33.57653 155.61165 31226 ft 516 kts 57°
2026-04-21 03:16 -33.53340 155.67981 31227 ft 516 kts 57°
2026-04-21 03:16 -33.48994 155.74832 31219 ft 516 kts 57°
2026-04-21 03:17 -33.44649 155.81669 31216 ft 515 kts 57°
2026-04-21 03:17 -33.40311 155.88481 31210 ft 514 kts 57°
2026-04-21 03:18 -33.35975 155.95280 31232 ft 513 kts 57°
2026-04-21 03:18 -33.31640 156.02064 31217 ft 513 kts 57°
2026-04-21 03:19 -33.27303 156.08840 31205 ft 513 kts 57°
2026-04-21 03:19 -33.22993 156.15560 31201 ft 512 kts 57°
2026-04-21 03:20 -33.18657 156.22309 31201 ft 512 kts 57°
2026-04-21 03:20 -33.14314 156.29055 31202 ft 512 kts 57°
2026-04-21 03:21 -33.09970 156.35792 31196 ft 512 kts 57°
2026-04-21 03:21 -33.05620 156.42525 31192 ft 512 kts 57°
2026-04-21 03:22 -33.01271 156.49244 31188 ft 512 kts 57°
2026-04-21 03:22 -32.96918 156.55958 31185 ft 512 kts 57°
2026-04-21 03:23 -32.92562 156.62665 31186 ft 512 kts 57°
2026-04-21 03:23 -32.88229 156.69323 31178 ft 512 kts 57°
2026-04-21 03:24 -32.83868 156.76012 31177 ft 511 kts 57°
2026-04-21 03:24 -32.79507 156.82689 31174 ft 511 kts 57°
2026-04-21 03:25 -32.75143 156.89359 31187 ft 511 kts 57°
2026-04-21 03:25 -32.70776 156.96021 31176 ft 511 kts 57°
2026-04-21 03:26 -32.66411 157.02669 31165 ft 510 kts 56°
2026-04-21 03:26 -32.62048 157.09302 31166 ft 509 kts 56°
2026-04-21 03:27 -32.57715 157.15878 31156 ft 509 kts 56°
2026-04-21 03:27 -32.53354 157.22485 31186 ft 509 kts 56°
2026-04-21 03:28 -32.48985 157.29092 31149 ft 509 kts 56°
2026-04-21 03:28 -32.44618 157.35683 31149 ft 508 kts 56°
2026-04-21 03:29 -32.40250 157.42259 31158 ft 508 kts 56°
2026-04-21 03:29 -32.35880 157.48832 31160 ft 508 kts 56°
2026-04-21 03:30 -32.31511 157.55394 31162 ft 508 kts 56°
2026-04-21 03:30 -32.27140 157.61947 31148 ft 508 kts 56°
2026-04-21 03:31 -32.22764 157.68497 31138 ft 508 kts 56°
2026-04-21 03:31 -32.18384 157.75039 31143 ft 507 kts 56°
2026-04-21 03:32 -32.14005 157.81570 31136 ft 507 kts 56°
2026-04-21 03:32 -32.09620 157.88098 31161 ft 508 kts 56°
2026-04-21 03:33 -32.05228 157.94626 31133 ft 508 kts 56°
2026-04-21 03:33 -32.00860 158.01106 31126 ft 508 kts 56°
2026-04-21 03:34 -31.96459 158.07625 31124 ft 508 kts 56°
2026-04-21 03:34 -31.92052 158.14140 31127 ft 508 kts 56°
2026-04-21 03:35 -31.87642 158.20649 31141 ft 508 kts 56°
2026-04-21 03:35 -31.83224 158.27160 31133 ft 509 kts 56°
2026-04-21 03:36 -31.78804 158.33661 31127 ft 509 kts 56°
2026-04-21 03:36 -31.74376 158.40164 31116 ft 509 kts 56°
2026-04-21 03:37 -31.69940 158.46667 31124 ft 509 kts 56°
2026-04-21 03:37 -31.65506 158.53157 31121 ft 510 kts 56°
2026-04-21 03:38 -31.61094 158.59603 31120 ft 510 kts 56°
2026-04-21 03:38 -31.56651 158.66084 31115 ft 510 kts 56°
2026-04-21 03:39 -31.52199 158.72568 31112 ft 510 kts 56°
2026-04-21 03:39 -31.47749 158.79039 31109 ft 510 kts 56°
2026-04-21 03:40 -31.43293 158.85505 31104 ft 510 kts 56°
2026-04-21 03:40 -31.38834 158.91965 31103 ft 510 kts 56°
2026-04-21 03:41 -31.34369 158.98424 31103 ft 510 kts 56°
2026-04-21 03:41 -31.29903 159.04874 31101 ft 510 kts 56°
2026-04-21 03:42 -31.25429 159.11327 31104 ft 510 kts 56°
2026-04-21 03:42 -31.20994 159.17805 31093 ft 508 kts 59°
2026-04-21 03:43 -31.16965 159.24563 31090 ft 507 kts 61°
2026-04-21 03:43 -31.12997 159.31302 31089 ft 507 kts 61°